Home > Weather > Hilversum > Past weeks

Flag for Netherlands Past Weather in Hilversum, Netherlands — Yesterday and Last 2 Weeks

Now
67 °F

Fog.


Feels Like: 67 °F
Forecast: 62 / 80 °F
Wind: 1 mph from South

Location: De Bilt

Current Time: Aug 26, 2016 at 5:37:35 AM

Latest Report: Aug 26, 2016 at 4:00 AM


Visibility: 5 mi

Pressure: 29.91 "Hg

Humidity: 94%

Dew Point: 65 °F

Location of HilversumLocation

Past Weather in Hilversum — Graph

°F

Hilversum Temperature Yesterday

Maximum temperature yesterday: 87 °F (at 5:00 PM)
Minimum temperature yesterday: 63 °F (at 2:00 AM)
Average temperature yesterday: 75 °F

High & Low Weather Summary for the Past Weeks

 TemperatureHumidityPressure
High87 °F (Aug 25, 5:00 PM)100% (Aug 14, 12:00 AM)30.32 "Hg (Aug 14, 12:00 AM)
Low47 °F (Aug 15, 5:00 AM)37% (Aug 17, 4:00 PM)29.75 "Hg (Aug 19, 8:00 PM)
Average65 °F78%30.07 "Hg
* Reported Aug 11 5:00 AM — Aug 26 4:00 AM, Hilversum, Weather by CustomWeather, © 2016

Note: Actual official high and low records may vary slightly from our data, if they occured in-between our weather recording intervals... More about our weather records

Advertising

Hilversum Weather History for the Previous 24 Hours

Scroll right to see more
 ConditionsComfort  
Time TempWeatherWind HumidityBarometerVisibility
4:00 AM
Fri, Aug 26
67 °FFog.1 mph94%29.91 "Hg5 mi
3:00 AM71 °FOvercast.3 mph87%29.91 "Hg7 mi
2:00 AM67 °FOvercast.2 mph98%29.90 "Hg6 mi
1:00 AM67 °FOvercast.2 mph98%29.91 "Hg7 mi
12:00 AM68 °FFog.1 mph98%29.92 "Hg6 mi
11:00 PM
Thu, Aug 25
70 °FOvercast.1 mph98%29.92 "Hg9 mi
10:00 PM72 °FOvercast.1 mph94%29.93 "Hg16 mi
9:00 PM75 °FOvercast.1 mph87%29.93 "Hg17 mi
8:00 PM84 °FSunny.1 mph67%29.93 "Hg19 mi
7:00 PM86 °FSunny.2 mph58%29.93 "Hg22 mi
6:00 PM87 °FSunny.3 mph51%29.93 "Hg22 mi
5:00 PM87 °FSunny.3 mph50%29.95 "Hg19 mi
4:00 PM87 °FSunny.5 mph50%29.96 "Hg19 mi
3:00 PM86 °FSunny.3 mph53%29.96 "Hg16 mi
2:00 PM85 °FSunny.3 mph57%29.98 "Hg14 mi
1:00 PM83 °FSunny.3 mph56%29.98 "Hg17 mi
12:00 PM81 °FPassing clouds.3 mph62%30.00 "Hg15 mi
11:00 AM79 °FPassing clouds.3 mph65%30.01 "Hg17 mi
10:00 AM76 °FOvercast.2 mph68%30.01 "Hg14 mi
9:00 AM72 °FScattered clouds.3 mph72%30.02 "Hg15 mi
8:00 AM69 °FPartly sunny.3 mph79%30.02 "Hg13 mi
7:00 AM66 °FSunny.2 mph85%30.03 "Hg12 mi
6:00 AM67 °FClear.3 mph81%30.02 "Hg16 mi
5:00 AM66 °FClear.3 mph84%30.02 "Hg17 mi
Weather by CustomWeather, © 2016

See weather overviewHow to use our weather pages